Regional Weather Roundup
Issued by NWS

Home | Current Version | Previous Version | Graphics & Text | Print | Product List | Glossary On
Versions: 1 2 3 4 5 6 7 8 9 10 11 12 13 14 15 16 17 18 19 20 21 22 23 24 25 26 27 28 29 30 31 32 33 34 35 36 37 38 39 40 41 42 43 44 45 46 47 48 49 50
000
ASUS43 KLOT 251004
RWRIL

ILLINOIS REGIONAL WEATHER ROUNDUP
NATIONAL WEATHER SERVICE CHICAGO/ROMEOVILLE IL
500 AM CDT FRI MAY 25 2018

NOTE: "FAIR" INDICATES FEW OR NO CLOUDS BELOW 12,000 FEET WITH NO
SIGNIFICANT WEATHER AND/OR OBSTRUCTIONS TO VISIBILITY.

* THESE STATIONS ARE NOT UNDER NWS QUALITY CONTROL. THEY ALSO MAY NOT
  REPORT WEATHER SUCH AS PRECIPITATION OR FOG.

ILZ001-002-007-009-015-016-024-251100-
NORTHWEST ILLINOIS

CITY           SKY/WX    TMP DP  RH WIND       PRES   REMARKS
MOLINE         FAIR      71  60  68 S6        29.93F
STERLING*        N/A    N/A N/A N/A MISG        N/A
SAVANNA*       FAIR      64  59  86 SE3       29.94F
$$

ILZ003-004-008-010-011-017-018-251100-
NORTH CENTRAL ILLINOIS

CITY           SKY/WX    TMP DP  RH WIND       PRES   REMARKS
ROCKFORD       FAIR      61  56  83 S6        29.96F
FREEPORT*      FAIR      63  58  82 S5        29.97S
ROCHELLE*      FAIR      62  58  88 S3        29.97F
DE KALB*       FAIR      62  56  81 S7        29.98F
PERU*          FAIR      69  59  72 S6        29.97F
$$

ILZ005-006-012>014-019>023-251100-
NORTHEAST ILLINOIS

CITY           SKY/WX    TMP DP  RH WIND       PRES   REMARKS
CHICAGO-OHARE  FAIR      68  51  54 S6        29.96F
CHICAGO-MIDWAY FAIR      68  52  56 S6        29.96F
AURORA         FAIR      60  57  89 CALM      29.97F
LANSING*       FAIR      64  54  68 CALM      29.99S
JOLIET*        FAIR      62  57  83 CALM      29.97F
WAUKEGAN       FAIR      66  53  63 SW8       29.95F
DUPAGE AIRPORT FAIR      62  55  77 S6        29.97F
KANKAKEE*      FAIR      62  52  69 CALM      30.01S
WHEELING       FAIR      63  56  78 CALM      29.97F
MORRIS*        FAIR      64  55  74 S5        29.97S
NORTHERLY ISL    N/A     70  49  47 S6          N/A
$$

LMZ740>746-251100-
SOUTHERN LAKE MICHIGAN

STATION/POSITION SKY/WX   TEMP    WIND        PRES    VSBY  WAVE
                          AIR SEA DIR/SP/G                  HT/PER
                          (F)     (DEG/KT/KT) (MB)    (MI)  (FT/S)
SOUTHERN BUOY              49 39  180/ 10/ 10 1014.7F         0
WILMETTE HARBOR            62 55  170/  6/  8   N/A           0
HARRISON CRIB              73     200/ 16/ 17   N/A
BURNHAM HARBOR             70     200/  6/  8   N/A
CALUMET HARBOR             68     200/  4/  6 1014.7F
BURNS HARBOR               69     190/ 11/ 14 1015.6F
MICHIGAN CITY              70     170/ 12/ 16   N/A
MICHIGAN CITY 6N           62 59  200/  4/  6   N/A           0
ST. JOSEPH                 63 58  190/  8/  8 1015.5F         0
$$

ILZ025>027-034>036-040-047-049-050-058-095>099-251100-
WEST-CENTRAL ILLINOIS

CITY           SKY/WX    TMP DP  RH WIND       PRES   REMARKS
QUINCY         CLEAR     69  61  75 S6        29.95F
GALESBURG*     FAIR      67  59  75 S3        29.96F
MACOMB*        CLEAR     66  60  82 S6        29.97F
JACKSONVILLE*  PTCLDY    70  59  69 S6        29.96F
PITTSFIELD*    PTCLDY    69  63  82 S5        29.96F
$$

ILZ028>032-037-038-041>044-048-051>054-059>061-251100-
CENTRAL ILLINOIS

CITY           SKY/WX    TMP DP  RH WIND       PRES   REMARKS
PONTIAC        FAIR      65  58  77 S5        29.99F
BLOOMINGTON    FAIR      65  54  67 S6        30.00F
DECATUR        FAIR      64  55  72 S3        29.99F
PEORIA         FAIR      66  60  81 CALM      29.97F
LACON*         FAIR      63  58  86 CALM      29.96F
LINCOLN*       FAIR      62  57  84 CALM      29.97F
SPRINGFIELD    FAIR      68  59  73 CALM      29.97F
TAYLORVILLE    FAIR      64  57  80 S3        29.98F
$$

ILZ033-039-045-046-055>057-062-063-251100-
EAST-CENTRAL ILLINOIS

CITY           SKY/WX    TMP DP  RH WIND       PRES   REMARKS
CHAMPAIGN      FAIR      65  55  70 SE7       30.00F
DANVILLE*      FAIR      61  56  83 CALM      29.99S
RANTOUL*       FAIR      64  57  78 SE3       30.00F
MATTOON        FAIR      66  57  72 S6        29.99F
PARIS*         FAIR      61  56  85 SE3       30.02S
$$

ILZ079-100>102-251100-
SOUTHWEST ILLINOIS

CITY           SKY/WX    TMP DP  RH WIND       PRES   REMARKS
BELLEVILLE     CLEAR     65  64  97 CALM      29.97F
CAHOKIA*       CLOUDY    67  62  84 S3        29.97F
SPARTA*        CLEAR     66  65  98 SE3       30.00F
$$

ILZ064>066-069>071-074>076-080>082-084>086-088>090-092>094-251100-
SOUTH-CENTRAL ILLINOIS

CITY           SKY/WX    TMP DP  RH WIND       PRES   REMARKS
CARBONDALE     FAIR      64  62  93 CALM      29.99S
CAIRO*         FAIR      68  67  98 CALM      30.00S
EFFINGHAM*     FAIR      60  58  92 CALM      30.02S
MT. VERNON     FAIR      55  55 100 CALM      30.00F FOG
CENTRALIA*     CLEAR     64  62  95 CALM      29.99F
SALEM*         FAIR      64  58  82 CALM      30.00S
METROPOLIS*    FAIR      65  64  96 CALM      30.01S
$$

ILZ067-068-072-073-078-083-087-091-251100-
SOUTHEAST ILLINOIS

CITY           SKY/WX    TMP DP  RH WIND       PRES   REMARKS
LAWRENCEVILLE  FAIR      63  56  78 CALM      30.01F
FLORA*         FAIR      62  59  90 CALM      30.01S
FAIRFIELD*     FAIR      62  59  89 CALM      30.00S
HARRISBURG*    FAIR      62  62  97 CALM      30.01S
ROBINSON*      FAIR      58  57  99 CALM      30.02F
CARMI*         FAIR      61  61  99 CALM      30.00S
$$

ABBREVIATIONS USED IN REMARKS
   TC - TEMPERATURE IN CELSIUS
  WCI - WIND CHILL INDEX
   HX - HEAT INDEX
  VSB - VISIBILITY
$$





USA.gov is the U.S. government's official web portal to all federal, state and local government web resources and services.